Le nostre stazioni meteo in Italia

Pubblicità
Il mio iltempo24.it
Monte Cimone, Italia (16134): Temperatura & dewpoint: 20.08.2019 12:00:00 - 26.08.2019 12:00:00 (CEST)Monte Cimone, Italia (16134): velocità del vento: 20.08.2019 12:00:00 - 26.08.2019 12:00:00 (CEST)Monte Cimone, Italia (16134): direzione del vento: 20.08.2019 12:00:00 - 26.08.2019 12:00:00 (CEST)Monte Cimone, Italia (16134): visibility: 20.08.2019 12:00:00 - 26.08.2019 12:00:00 (CEST)Monte Cimone, Italia (16134): ore di luce: 20.08.2019 12:00:00 - 26.08.2019 12:00:00 (CEST)
Data & Tempo tt [°C] td [°C] ff [km/h] ff [kn] dd vv [km] sd [min]
26.08.2019 12:00:00 14,2 9,4 9 5 ESE 10 60
26.08.2019 11:00:00 12,4 8,7 9 5 E 10 60
26.08.2019 10:00:00 11,8 8,5 15 8 E 10 60
26.08.2019 09:00:00 11,0 6,7 18 10 ENE 20 60
26.08.2019 08:00:00 11,0 7,3 18 10 ENE 20 36
26.08.2019 07:00:00 11,0 5,3 18 10 NE 20 -
26.08.2019 06:00:00 11,0 6,2 11 6 ENE 20 -
26.08.2019 05:00:00 11,2 5,9 13 7 ENE 20 -
26.08.2019 04:00:00 11,0 6,2 13 7 ENE 20 -
26.08.2019 03:00:00 11,2 6,7 15 8 E 20 -
26.08.2019 02:00:00 11,4 6,1 18 10 ENE 20 -
26.08.2019 01:00:00 11,6 6,1 21 11 ENE 20 -
26.08.2019 00:00:00 11,8 5,7 22 12 ENE 20 -
25.08.2019 23:00:00 11,8 6,3 21 11 NE 20 -
25.08.2019 22:00:00 11,8 7,7 18 10 ENE 20 -
25.08.2019 21:00:00 12,2 6,3 15 8 NE 20 -
25.08.2019 20:00:00 12,4 6,9 9 5 ESE 20 0
25.08.2019 19:00:00 12,4 6,4 8 4 E 20 0
25.08.2019 18:00:00 12,6 6,0 11 6 E 20 0
25.08.2019 17:00:00 12,6 6,2 9 5 ESE 20 0
25.08.2019 16:00:00 12,0 6,7 18 10 S 12 0
25.08.2019 15:00:00 11,8 7,5 15 8 SO 12 0
25.08.2019 14:00:00 13,8 11,3 5 3 SSO - 0
25.08.2019 13:00:00 14,8 9,0 11 6 E 20 54
25.08.2019 12:00:00 13,2 8,1 15 8 ESE 20 60
25.08.2019 11:00:00 12,0 8,8 15 8 E 20 48
25.08.2019 10:00:00 12,2 9,2 13 7 NE 2,0 12
25.08.2019 09:00:00 12,0 7,9 15 8 NE 20 60
25.08.2019 08:00:00 11,8 7,7 16 9 NNE 20 12
25.08.2019 07:00:00 11,6 8,1 15 8 NE 20 0
25.08.2019 06:00:00 11,8 8,5 15 8 NNE 20 -
25.08.2019 05:00:00 12,2 8,7 8 4 NNO 20 -
25.08.2019 04:00:00 11,8 9,4 9 5 SE 20 -
25.08.2019 03:00:00 - - - - - - -
25.08.2019 02:00:00 12,2 6,9 26 14 SSE 20 -
25.08.2019 01:00:00 12,4 6,7 24 13 SSE 15 -
25.08.2019 00:00:00 11,4 10,6 18 10 E - -
24.08.2019 23:00:00 11,6 10,0 11 6 E - -
24.08.2019 22:00:00 12,0 8,3 13 7 ESE 20 -
24.08.2019 21:00:00 12,4 6,2 16 9 SE 20 -
24.08.2019 20:00:00 12,2 6,9 13 7 ESE 20 0
24.08.2019 19:00:00 12,6 8,1 11 6 NE 20 0
24.08.2019 18:00:00 13,2 9,5 4 2 SO 0,1 0
24.08.2019 17:00:00 13,0 9,3 9 5 SSO 0,1 0
24.08.2019 16:00:00 12,4 10,3 8 4 E 0,1 0
24.08.2019 15:00:00 12,4 10,6 22 12 ESE 0,1 0
24.08.2019 14:00:00 12,8 9,1 21 11 ESE 0,1 0
24.08.2019 13:00:00 12,6 8,9 18 10 ESE 0,1 0
24.08.2019 12:00:00 12,4 9,6 18 10 ESE 0,1 48
24.08.2019 11:00:00 11,6 8,3 24 13 E 20 0
24.08.2019 10:00:00 10,4 8,7 28 15 E 1,0 0
24.08.2019 09:00:00 10,8 8,9 42 23 E 2,0 0
24.08.2019 08:00:00 10,6 9,8 41 22 E - 0
24.08.2019 07:00:00 11,0 10,5 31 17 E - -
24.08.2019 06:00:00 10,8 10,4 31 17 E - -
24.08.2019 05:00:00 10,6 9,8 24 13 E 0,4 -
24.08.2019 04:00:00 10,4 9,6 18 10 ESE 0,4 -
24.08.2019 03:00:00 10,4 9,6 18 10 ESE 0,4 -
24.08.2019 02:00:00 10,6 9,8 24 13 E 0,4 -
24.08.2019 01:00:00 10,6 9,7 29 16 NE 0,6 -
24.08.2019 00:00:00 10,8 9,9 22 12 NE 0,6 -
23.08.2019 23:00:00 10,8 10,0 13 7 ESE - -
23.08.2019 22:00:00 10,8 10,5 24 13 E - -
23.08.2019 21:00:00 10,6 10,3 22 12 ESE - -
23.08.2019 20:00:00 11,2 7,3 31 17 ESE 12 -
23.08.2019 19:00:00 11,2 4,7 24 13 ESE 12 -
23.08.2019 18:00:00 10,0 6,0 50 27 E 1,2 -
23.08.2019 17:00:00 12,2 10,6 21 11 E 0,8 -
23.08.2019 16:00:00 11,6 10,7 15 8 ESE 0,4 -
23.08.2019 15:00:00 11,4 10,1 21 11 ESE 0,4 -
23.08.2019 14:00:00 11,6 10,0 21 11 E 0,8 -
23.08.2019 13:00:00 10,4 9,8 26 14 E 0,1 -
23.08.2019 12:00:00 10,2 9,7 28 15 ENE 0,1 -
23.08.2019 11:00:00 9,8 9,2 39 21 NE 0,2 -
23.08.2019 10:00:00 10,6 7,5 26 14 E 0,9 -
23.08.2019 09:00:00 10,4 10,1 35 19 ENE 0,1 0
23.08.2019 08:00:00 10,4 9,8 31 17 ENE 0,1 0
23.08.2019 07:00:00 10,4 5,6 29 16 ESE 20 0
23.08.2019 06:00:00 11,6 11,3 48 26 SSE - -
23.08.2019 05:00:00 12,0 11,2 24 13 NE - -
23.08.2019 04:00:00 - - - - - - -
23.08.2019 03:00:00 - - - - - - -
23.08.2019 02:00:00 13,2 7,4 18 10 SE 20 -
23.08.2019 01:00:00 13,0 7,2 22 12 ESE 20 -
23.08.2019 00:00:00 13,0 5,9 18 10 E 20 -
22.08.2019 23:00:00 13,4 7,8 24 13 E - -
22.08.2019 22:00:00 12,4 12,1 18 10 ESE - -
22.08.2019 21:00:00 13,8 8,2 16 9 E 20 -
22.08.2019 20:00:00 11,6 2,1 9 5 SE 20 0
22.08.2019 19:00:00 14,4 11,6 9 5 E - 0
22.08.2019 18:00:00 14,8 12,3 11 6 ESE - 0
22.08.2019 17:00:00 15,4 10,4 5 3 NNO 10 6
22.08.2019 16:00:00 16,2 11,2 4 2 NO 10 0
22.08.2019 15:00:00 15,4 9,3 8 4 SSO - 0
22.08.2019 14:00:00 14,0 12,1 9 5 S - 0
22.08.2019 13:00:00 13,4 12,0 9 5 SE - 0
22.08.2019 12:00:00 12,6 12,0 13 7 ESE - 0
22.08.2019 11:00:00 12,0 11,7 18 10 SE - 0
22.08.2019 10:00:00 12,4 11,0 18 10 E - 0
22.08.2019 09:00:00 13,6 8,9 18 10 SSE 20 30
22.08.2019 08:00:00 13,2 9,8 18 10 S 20 0
22.08.2019 07:00:00 13,8 11,3 22 12 SSE 20 -
22.08.2019 06:00:00 13,8 11,3 22 12 SSE 20 -
22.08.2019 05:00:00 13,4 9,3 18 10 SSE 20 -
22.08.2019 04:00:00 13,8 9,4 21 11 SSE 20 -
22.08.2019 03:00:00 13,6 10,0 22 12 SE 20 -
22.08.2019 02:00:00 13,4 11,8 21 11 ESE 20 -
22.08.2019 01:00:00 13,8 13,8 16 9 ESE - -
22.08.2019 00:00:00 14,0 14,0 18 10 ESE - -
21.08.2019 23:00:00 15,0 11,8 13 7 E 20 -
21.08.2019 22:00:00 14,8 11,4 9 5 SE 20 -
21.08.2019 21:00:00 15,0 12,5 9 5 SSE 20 -
21.08.2019 20:00:00 15,2 12,2 11 6 S 20 0
21.08.2019 19:00:00 15,0 13,7 18 10 S 20 18
21.08.2019 18:00:00 16,0 12,4 22 12 S 20 54
21.08.2019 17:00:00 16,8 13,7 13 7 SSE 20 36
21.08.2019 16:00:00 18,0 11,8 13 7 SE 30 60
21.08.2019 15:00:00 17,0 9,7 13 7 S 30 60
21.08.2019 14:00:00 17,4 9,8 15 8 S 30 60
21.08.2019 13:00:00 17,0 9,2 18 10 S 30 60
21.08.2019 12:00:00 17,0 9,4 8 4 SO 50 60
21.08.2019 11:00:00 16,0 9,9 13 7 SSO 50 60
21.08.2019 10:00:00 15,2 8,9 16 9 SSO 50 60
21.08.2019 09:00:00 15,0 8,5 15 8 SO 30 30
21.08.2019 08:00:00 14,2 8,0 16 9 SO 30 36
21.08.2019 07:00:00 14,0 7,3 9 5 SO 30 0
21.08.2019 06:00:00 14,0 8,0 11 6 SO 30 -
21.08.2019 05:00:00 14,0 7,5 9 5 SSO 30 -
21.08.2019 04:00:00 14,0 7,5 8 4 SO 30 -
21.08.2019 03:00:00 14,6 7,4 9 5 ESE 30 -
21.08.2019 02:00:00 15,0 6,3 8 4 ESE 30 -
21.08.2019 01:00:00 15,0 5,2 8 4 SE 30 -
21.08.2019 00:00:00 15,0 5,2 13 7 SO 30 -
20.08.2019 23:00:00 15,4 7,9 15 8 SO 30 -
20.08.2019 22:00:00 15,6 5,8 15 8 SO 30 -
20.08.2019 21:00:00 16,4 5,1 15 8 SO 30 -
20.08.2019 20:00:00 17,4 6,3 11 6 SO 30 24
20.08.2019 19:00:00 18,6 5,1 8 4 OSO 30 60
20.08.2019 18:00:00 19,8 5,1 8 4 O 50 60
20.08.2019 17:00:00 20,4 5,6 8 4 SO 50 60
20.08.2019 16:00:00 20,6 5,8 8 4 SO 50 60
20.08.2019 15:00:00 19,8 5,5 8 4 SSO 50 60
20.08.2019 14:00:00 19,2 6,0 8 4 S 50 60
20.08.2019 13:00:00 18,6 5,8 8 4 SSO 50 60
20.08.2019 12:00:00 17,4 6,3 8 4 SO 50 60

tt = Temperatura
td = dewpoint
ff = velocità del vento
dd = direzione del vento
vv = visibility
sd = ore di luce

Stazioni seguenti

WeatherPro
AMSI
MeteoEarth